Regional Weather Roundup
Issued by NWS

Current Version | Previous Version | Text Only | Print | Product List | Glossary On
Versions: 1 2 3 4 5 6 7 8 9 10 11 12 13 14 15 16 17 18 19 20 21 22 23 24 25 26 27 28 29 30 31 32 33 34 35 36 37 38 39 40 41 42 43 44 45 46 47 48 49 50
000
ASUS46 KSTO 260109
RWRCA

NORTHERN AND CENTRAL CA REGIONAL WEATHER ROUNDUP
NATIONAL WEATHER SERVICE SACRAMENTO CA
500 PM PST SUN JAN 25 2015

NOTE: FAIR INDICATES FEW OR NO CLOUDS BELOW 12,000 FEET WITH NO
SIGNIFICANT WEATHER AND/OR OBSTRUCTIONS TO VISIBILITY.

CAZ001-003-260200-
NORTHWEST AREA

CITY           SKY/WX    TMP DP  RH WIND       PRES   REMARKS
CRESCENT CITY  CLEAR     59  47  64 SE8       30.03R
ARCATA         NOT AVBL
SHELTER COVE   NOT AVBL
UKIAH          CLEAR     64  49  57 W5        30.00R
$$

CAZ006-505>513-260200-
BAY AREA

CITY           SKY/WX    TMP DP  RH WIND       PRES   REMARKS
SANTA ROSA     CLEAR     61  49  64 CALM      30.01S
SAN RAFAEL     N/A       64  MM  MM MISG
NAPA           CLEAR     54  48  80 E10       30.01F
CONCORD        CLEAR     58  45  62 NW7       30.02F
OAKLAND CITY   N/A       66  MM  MM MISG
OAKLAND        CLEAR     59  42  53 CALM      30.01F
SAN FRAN CITY  N/A       62  MM  48 MISG
SAN FRAN ARPT  CLEAR     57  51  80 CALM      30.01F
LIVERMORE      CLEAR     62  40  44 NE7       30.01F
HAYWARD        CLEAR     61  45  55 CALM      30.01F
REDWOOD CITY   N/A       MM  MM  MM MISG
MOFFETT ARPT   CLEAR     63  40  42 CALM      30.01F
SAN JOSE ARPT  CLEAR     62  42  47 CALM      30.01F
$$
CAZ034-037-514>518-260200-
CENTRAL COAST

CITY           SKY/WX    TMP DP  RH WIND       PRES   REMARKS
WATSONVILLE    CLEAR     76  41  28 NE3       29.98S
SALINAS        CLEAR     81  39  22 CALM      29.97R
MONTEREY       CLEAR     76  27  16 CALM      29.98S
PT PIEDRAS BLS NOT AVBL
SAN LUIS OBISP PTCLDY    66  32  28 SE6       29.98R
SANTA MARIA    PTCLDY    70  31  23 S6        29.99R
$$
CAZ015-016-260200-
NORTHERN SACRAMENTO VALLEY

CITY           SKY/WX    TMP DP  RH WIND       PRES   REMARKS
REDDING        CLEAR     65  51  60 SE5       29.97F
RED BLUFF      CLEAR     61  48  62 SE7       30.00S
OROVILLE       CLEAR     52  46  80 CALM      30.03F
$$
CAZ016>018-260200-
SOUTHERN SACRAMENTO VALLEY

CITY           SKY/WX    TMP DP  RH WIND       PRES   REMARKS
AUBURN         CLEAR     59  43  55 CALM      30.03S
BEALE AFB      CLEAR     53  50  87 S2        30.01F
LINCOLN        FAIR      54  45  71 CALM      30.02F
MARYSVILLE     CLEAR     54  46  74 S6        30.02F
SAC INTL ARPT  CLEAR     53  45  74 S6        30.02F
MATHER AIRPORT CLEAR     57  37  47 SE7       30.03F
DOWNTOWN SAC   N/A       58  MM  MM MISG
SAC EXEC ARPT  CLEAR     56  45  66 S5        30.03F
VACAVILLE      CLEAR     56  46  69 S5        30.03F
TRAVIS AFB     CLEAR     56  47  73 CALM      30.01F
$$
CAZ019>021-260200-
SAN JOAQUIN VALLEY

CITY           SKY/WX    TMP DP  RH WIND       PRES   REMARKS
STOCKTON       CLEAR     51  43  74 S7        30.03F HAZE
MODESTO        CLEAR     49  42  77 S5        30.05F
MERCED         CLEAR     45  41  86 SW5       30.06F FOG
LEMOORE        CLEAR     49  42  77 N6        30.08S HAZE
FRESNO         CLEAR     51  43  74 NW5       30.07R
HANFORD        CLEAR     48  43  82 W3        30.08R HAZE
PORTERVILLE    CLEAR     46  43  87 W6        30.07S
BAKERSFIELD    PTCLDY    54  44  69 CALM      30.05F HAZE
$$
CAZ011-012-071-260200-
NORTHERN MOUNTAINS

CITY           SKY/WX    TMP DP  RH WIND       PRES   REMARKS
YREKA          CLEAR     55  41  59 CALM      30.15F
MOUNT SHASTA   CLEAR     58  41  53 CALM      30.13F
ALTURAS        CLEAR     61  37  41 E5        30.23S
$$
CAZ011-012-071-260200-
SIERRA NEVADA MTNS

CITY           SKY/WX    TMP DP  RH WIND       PRES   REMARKS
BLUE CANYON    CLEAR     63  24  22 NE7       30.20F
TRUCKEE        NOT AVBL
TAHOE VLY ARPT CLEAR     52  24  33 VRB3      30.27R
MAMMOTH LAKES  FAIR      54  18  24 SE10G17   30.31S
$$



USA.gov is the U.S. government's official web portal to all federal, state and local government web resources and services.